User: anonymous   Login
Location: Newark
(46.9000°N, 28.3500°E)
Time: 12:34:34
(UTC+00:00)
Language:

S-56A Canister/Altair - Orbit

View from above orbital plane
View from above orbital plane
View from above satellite
View from above satellite

Ground track
Ground track

The orbit data is extracted from the following two-line orbital elements,

1    82U 61004B   20224.72280897 -.00000055 +00000-0 -25715-5 0  9991
2    82 038.8603 353.7391 1174427 350.3082 007.6646 12.26061684814590
Epoch (UTC): 11 August 2020 17:20:50
Eccentricity: 0.1174427
inclination: 38.8603°
perigee height: 633 km
apogee height: 2499 km
right ascension of ascending node: 353.7391°
argument of perigee: 350.3082°
revolutions per day: 12.26061684
mean anomaly at epoch: 7.6646°
orbit number at epoch: 81459

The dashed part of the orbit path shows where the satellite is in the earth's shadow,  

DLR